星链-4352 (STARLINK-4352 )

导读 | 星芒AI

STARLINK-4352 是 SpaceX Starlink 卫星互联网项目中的一颗低轨卫星,属于“星链”计划的组成部分。该卫星旨在为全球用户提供高速互联网服务,尤其关注网络覆盖不足的地区。它运行在约 550 公里的轨道高度,配备先进通信设备,支持 Ku 和 Ka 频段传输。STARLINK-4352 于 2022 年发射,是 SpaceX 扩展其卫星群、提升网络容量和稳定性的关键一环。

基本信息
目录编号:
53047
目录名称:
STARLINK-4352
国际标识:
2022-077E
轨道中心:
EARTH
卫星名称:
星链-4352
卫星全名:
星链-4352 (STARLINK-4352 )
卫星状态:
在轨 (已飞行1213 天)
发射日期:
2022-07-11 UTC
国别 :
美国 (US)
星等 :
--
轨道信息
数据来源 国际轨道数据 AOE轨道数据
星历时间 2025-11-05T02:47:14+0800
9小时前
查看轨道信息
2025-11-03T08:00:00+0800
2天前
查看轨道信息
半长轴 6941.142km 6941.1km
偏心率 0.000233 0.0002164
轨道倾角 97.604° 97.603°
近地点辐角 72.253° 70.202°
升交点赤经 127.963° 126.219°
平近点角 287.895° 20.778°
近地点 561.389km 561.462km
远地点 564.625km 564.468km
周期 95.919分钟 95.918分钟
每日圈数 15.012618 15.012752
详细信息
固有亮度:
5
最大亮度:
2.5
卫星平台:
Starlink v1.5
覆盖范围:
全球
运营商:
太空探索技术公司
运营商所在国:
美国
制造商(研发单位):
太空探索技术公司
制造商所在国:
美国
使用方式:
暂无
卫星简介
星链(Starlink)计划是由太空探索技术公司(SpaceX)提出的一个巨型低轨卫星互联网星座项目,计划在2019年至2024年间在太空搭建由约1.2万颗卫星组成的“星链”网络,其中1584颗将部署在地球上空550千米处的近地轨道,并从2020年开始工作。该卫星仍在工作。
2D轨道图
3D轨道图
轨道高度分析图
轨道倾角分析图
轨道综合分析图
查看轨道综合分析图